Zurück zum Katalog

STARLINK-34610

AktivKommunikationVLEO
NORAD 65034·PAYLOAD·🇺🇸 United States

Gestartet Jul 30, 2025 von Cape Canaveral Space Force Station

Loading…

Nächste Überflüge (nächste 24 Stunden)

TLE

AktuellSource: CelesTrak SupGP

Epoche: Sep 14, 2026, 22:58 UTC

1 65034C 25161V   26257.95743056 -.00049490  00000+0 -14624-2 0  2577
2 65034  53.1570 133.3879 0001447  85.7197 191.3666 15.34409877    19

Verfolge STARLINK-34610 in Echtzeit mit AllMySat

Download on the App Store